CAPE
0 0 0 0 0 0 0 0 0 0 0 0 0 0 0 0 0 0 0 0 0 0 0 0 0 0 28 16 61 64 0 6 247 430 547 618 615 643 700 778 882 929 969 1036 1074 1102 1144 1190 1288 1487 1651 1713 1830 2034 2266 2489 2622 2673 2709 2713 2685 2620 2544 2474 2385 2243 2235 2149 2055 1957 1875 1785 1709 1653 1635 1683 1755 1788 1768 1714 1681 1717 1817 2161 2486 2535 2402
0 0 14 7 0 0 0 0 0 0 0 0 0 0 0 0 0 0 0 0 0 0 0 0 0 0 11 93 430 390 15 8 425 446 502 627 673 656 654 706 754 804 920 1062 1096 1079 1093 1164 1265 1485 1760 1928 2030 2153 2260 2489 2783 2924 2943 2901 2825 2736 2666 2597 2531 2442 2328 2297 2236 2140 2044 1938 1829 1737 1658 1657 1705 1797 1870 1852 1787 1775 1814 1939 2221 2456 2503
0 2 16 15 0 0 0 0 0 0 0 0 0 0 0 0 0 0 0 0 0 0 0 0 0 341 0 451 534 486 65 44 313 489 531 595 678 670 630 620 648 711 902 1075 1141 1151 1169 1261 1365 1472 1690 1939 2115 2237 2333 2419 2693 3129 3179 3176 3067 2979 2861 2757 2681 2632 2542 2416 2377 2296 2203 2077 1964 1856 1757 1689 1703 1742 1836 1966 1950 1884 1896 1950 2094 2288 2437
9 6 18 13 10 0 0 0 0 0 1 0 0 0 0 0 0 0 0 0 0 0 0 207 498 539 597 592 522 440 183 263 385 490 514 566 617 651 655 658 649 712 855 1063 1220 1276 1294 1349 1444 1553 1663 1813 2006 2199 2325 2421 2483 2767 3415 3438 3330 3254 3170 3057 2951 2863 2818 2743 2627 2468 2348 2234 2100 1982 1876 1763 1715 1738 1755 1872 2044 2064 2024 2032 2106 2255 2398
18 11 15 15 2 0 0 0 0 0 7 4 0 0 300 420 119 0 0 0 0 0 0 284 447 595 626 610 596 533 460 446 431 462 478 500 547 604 660 650 716 772 851 1110 1318 1396 1418 1435 1500 1618 1747 1872 2023 2114 2204 2282 2406 2594 3188 3592 3621 3556 3468 3386 3276 3185 3166 3150 3094 2990 2810 2582 2305 2134 2004 1885 1768 1728 1749 1774 1918 2109 2157 2133 2128 2187 2353
16 18 16 23 1 10 4 5 1 2 12 416 446 573 463 642 746 754 262 0 75 0 0 420 896 1476 1920 1944 1855 1001 951 957 904 881 823 732 740 749 790 804 802 829 858 1032 1342 1495 1555 1565 1560 1619 1746 1930 2113 2294 2465 2584 2665 2724 2913 3422 3774 3794 3741 3675 3622 3569 3518 3478 3454 3389 3265 3071 2797 2446 2195 2028 1882 1796 1765 1739 1743 1922 2121 2187 2156 2119 2172
14 9 27 23 1 12 4 14 189 352 230 474 598 500 452 585 617 662 500 81 35 162 1420 2097 2230 2396 2609 2774 2934 3048 2864 2434 2348 2388 2271 1915 1697 1488 1524 1724 1934 2144 1914 1573 1530 1518 1600 1644 1694 1743 1861 2089 2221 2390 2630 2848 2916 2926 2932 3108 3516 3839 3907 3863 3826 3793 3763 3714 3659 3600 3513 3398 3202 2883 2479 2209 2048 1900 1836 1795 1747 1781 1986 2104 2148 2140 2109
5 9 9 13 4 3 15 21 292 176 0 30 452 416 572 514 586 700 613 204 1337 2104 2011 2055 2198 2372 2499 2658 2694 2706 2601 2449 2383 2434 2489 2555 2677 2786 2682 2594 3010 3213 2931 2731 2580 2460 2487 2881 2535 2274 2498 2708 2753 2783 2814 2965 3080 3116 3118 3085 3206 3602 3853 3946 3956 3926 3888 3842 3796 3736 3673 3584 3445 3233 2916 2478 2197 2052 1908 1841 1810 1778 1871 2066 2181 2204 2185
11 0 20 2 3 12 1 9 31 0 95 309 458 770 624 576 702 810 682 976 1883 2051 1905 1784 1933 2006 2181 2435 2586 2444 2312 2125 2149 2292 2376 2497 2665 2828 2907 2987 3130 3147 2968 2766 2643 2593 2713 2834 2981 2978 2955 3090 3228 3177 3164 3190 3212 3248 3252 3162 3232 3292 3664 3851 3916 3956 3946 3916 3877 3845 3783 3687 3551 3379 3176 2904 2488 2217 2085 1944 1840 1817 1828 1990 2234 2372 2416
16 4 9 9 3 5 2 3 2 141 285 586 329 503 500 597 697 935 957 1216 1498 1547 1684 1545 1553 1633 1909 2271 2504 2614 2389 2277 2187 2010 2264 2703 3150 3291 3310 3455 3672 3848 3830 3760 3706 3699 3707 3834 4002 3845 3402 3331 3437 3600 3604 3593 3528 3473 3446 3494 3488 3487 3459 3678 3846 3914 3958 3950 3932 3887 3828 3732 3616 3468 3299 3102 2846 2460 2277 2132 1983 1864 1832 1878 2082 2348 2519
4 5 1 0 12 0 0 0 107 324 555 506 436 629 514 606 877 1008 1154 1153 1210 1251 1177 1155 1335 1564 2003 2284 2528 2627 2468 2392 2507 2316 2155 2290 2924 3322 3503 3605 3699 3790 3877 3741 3531 3352 3234 3228 3483 4016 4591 4272 3603 3464 3512 3740 3724 3698 3658 3628 3584 3601 3588 3572 3633 3814 3916 3963 3944 3901 3835 3769 3648 3536 3402 3206 3002 2771 2517 2296 2168 2012 1904 1908 1969 2123 2364
8 2 5 7 0 0 4 0 198 308 479 552 365 676 556 570 975 1172 1153 1256 1296 1287 1408 1370 1492 1729 2002 2224 2335 2563 2443 2288 2377 2492 2487 2342 2192 2703 3422 3539 3534 3530 3444 3410 3425 3408 3345 3340 3658 4012 4285 4759 5125 4886 4686 3677 3402 3675 3739 3700 3674 3650 3651 3681 3668 3635 3781 3877 3907 3907 3858 3756 3658 3571 3451 3304 3119 2955 2764 2557 2364 2223 2090 1998 2022 2094 2170
16 7 5 0 0 0 0 0 1 76 337 360 501 509 643 694 992 1160 1218 1239 1258 1242 1236 1314 1438 1552 1876 2018 2160 2454 2388 2193 2194 2268 2401 2430 2241 2326 2761 3194 3380 3435 3434 3429 3340 3398 3441 3437 3704 3999 4237 4564 4720 4902 4756 4288 4412 3917 2672 2890 3081 3297 3403 3434 3458 3506 3520 3775 3862 3875 3858 3803 3697 3581 3497 3386 3242 3106 2962 2820 2668 2495 2265 2153 2107 2190 2278
17 13 0 14 1 0 0 0 2 9 206 224 448 648 568 747 976 1175 1128 1136 1190 1303 1296 1304 1414 1556 1726 1848 1839 2034 2284 2235 1990 1969 2016 2063 2094 2165 2411 2806 2626 2700 2843 3069 3062 3149 3160 3187 3404 3805 4345 4752 4987 4729 4470 4379 4598 4905 4569 4503 3019 2447 2815 3304 3315 3323 3421 3655 3808 3858 3856 3824 3754 3659 3553 3456 3355 3245 3123 3018 2909 2780 2634 2477 2371 2317 2560
5 17 4 0 20 0 0 0 7 3 11 203 365 372 439 683 917 1144 1052 992 1131 1231 1254 1325 1459 1523 1740 1821 1647 1594 1658 1748 1818 1780 1829 1909 1911 1950 2116 2331 2437 2407 2578 2942 3049 3038 3192 3195 3318 3355 3761 4168 4379 4443 4276 4346 4409 4439 4600 4810 4055 2845 2562 3422 3542 3434 3455 3632 3792 3870 3888 3858 3813 3738 3671 3645 3576 3476 3360 3339 3311 3199 3064 2888 2763 2687 2890
13 15 10 10 8 1 3 7 7 27 52 233 457 441 254 576 839 1135 1031 994 1026 1208 1300 1335 1346 1432 1495 1538 1599 1386 1616 1738 1768 1697 1626 1603 1676 1785 1916 2247 2449 2591 2692 2823 2888 2966 3203 3272 3256 3498 3480 3772 4002 4169 4080 4256 4498 4548 4619 4742 4760 3601 2698 3148 3667 3703 3733 3828 3872 3942 3953 3930 3882 3827 3867 3933 3914 3842 3782 3743 3682 3638 3530 3421 3293 3198 3140
28 23 49 11 6 5 21 4 26 40 51 182 302 280 326 462 554 964 1090 1071 1077 1170 1220 1303 1279 1153 1108 1131 1222 1062 812 855 1429 1720 1664 1640 1626 1601 1664 1934 2291 2493 2585 2572 2539 2608 2770 2966 3024 3360 3552 3646 3866 3966 3988 4223 4312 4518 4670 4970 5538 4516 3317 2825 3525 3822 3988 4137 4141 4143 4118 4061 4023 4002 4157 4212 4190 4156 4108 4035 3993 3932 3896 3828 3742 3681 3602
2 22 0 0 0 27 41 41 30 4 85 71 293 267 237 412 459 527 813 951 1087 1109 1040 1171 1133 976 828 644 855 692 660 655 681 1009 1316 1418 1509 1504 1492 1590 1932 2276 2424 2429 2367 2297 2289 2316 2646 2732 3256 3574 3608 3863 3889 4092 4256 4325 4599 4903 5484 4870 4062 3225 3493 3934 4126 4376 4441 4430 4429 4336 4268 4309 4470 4497 4416 4420 4354 4306 4249 4197 4165 4143 4123 4070 4045
9 6 0 0 0 0 0 0 0 0 7 62 94 155 154 63 338 406 253 487 686 840 867 987 944 825 688 550 636 695 708 656 725 838 909 1194 1373 1448 1524 1618 1932 2189 2341 2382 2333 2266 2249 2250 2255 2292 2327 3092 3521 3695 3881 3964 4157 4210 4496 4845 5252 5128 4541 3741 4026 4154 4216 4479 4686 4769 4820 4750 4663 4699 4752 4728 4670 4643 4608 4581 4530 4491 4438 4433 4398 4381 4327
1 2 0 0 0 0 0 0 0 0 24 50 73 163 197 278 218 138 328 391 341 431 606 737 666 608 489 438 567 674 742 791 822 911 1049 1110 1238 1397 1615 1854 2077 2136 2263 2302 2235 2132 2190 2161 2032 2023 2147 2201 2841 3468 3693 3878 4033 4133 4318 4723 5250 5293 4697 4531 4525 4420 4378 5415 5118 5123 5214 5160 5155 5142 5043 5063 4988 4916 4920 4901 4898 4859 4831 4797 4777 4744 4697
0 0 0 0 0 0 0 0 0 1 8 7 1 38 108 166 226 258 139 348 218 204 221 455 470 491 458 408 519 636 751 893 995 1048 1065 1068 1191 1397 1683 1821 1844 2052 2086 2179 2161 2091 2095 2098 1963 1832 1802 1807 1839 2400 3092 3519 3957 4138 4209 4558 4914 5237 5048 5146 4942 4718 4754 5264 5099 5195 5284 5304 5280 5308 5395 5425 5286 5240 5198 5211 5164 5154 5100 5051 5028 4941 4847
17 11 5 0 0 0 0 0 0 0 1 1 0 1 20 76 148 181 205 234 146 175 209 132 263 273 264 234 110 537 672 911 1090 1092 1056 992 1142 1302 1488 1575 1581 1681 1890 2202 1998 1955 2038 2095 1954 1857 1758 1639 1540 1539 1777 2569 3627 4194 4271 4507 4727 5069 5418 5514 5298 5139 5239 5164 5119 5200 5280 5306 5290 5280 5324 5398 5503 5469 5442 5327 5328 5300 5203 5178 5099 5048 4993
40 0 0 5 1 0 0 0 0 0 2 1 0 2 7 0 36 119 118 131 277 279 173 194 74 215 217 168 59 170 532 914 1076 1116 1091 1105 1094 1219 1669 1708 1619 1781 1898 2074 1959 2060 2022 1971 1908 1794 1632 1402 1296 1212 1776 2536 3539 4263 4364 4556 4608 4836 5106 5678 5590 5456 5404 5214 5220 5230 5270 5264 5203 5177 5130 5275 5486 5522 5494 5520 5460 5463 5451 5401 5316 5208 5156
0 0 0 0 0 0 0 0 0 0 0 0 0 0 0 0 0 0 50 147 175 208 209 187 210 115 30 6 51 120 534 690 1006 1083 1063 1086 1171 1353 1725 1761 1792 1825 1905 1899 1888 1926 1953 1883 1708 1601 1413 1196 1075 1263 1762 2644 3460 4167 4458 4537 4597 4582 4741 5077 5674 5694 5556 5376 5292 5233 5223 5191 5131 5082 5019 5081 5239 5467 5568 5659 5637 5529 5399 5456 5449 5274 5107
1 0 0 0 0 0 0 0 0 0 0 0 0 0 0 0 0 0 0 5 38 88 95 74 1 14 0 0 0 69 461 665 984 1362 1162 1328 1278 1664 1739 1820 1800 1886 1821 1875 1889 1892 1806 1716 1647 1501 1371 1237 1192 1527 1959 2864 3545 4044 4349 4450 4514 4530 4538 4879 5056 5444 5779 5624 5512 5333 5237 5162 5137 5066 5047 5092 5229 5116 5126 5334 5252 5311 5273 5134 4870 4962 4799
0 0 0 0 0 0 0 0 0 0 0 0 1 4 0 2 4 0 0 0 0 0 0 4 0 0 0 0 8 90 488 739 1115 1127 1056 1108 1253 1339 1601 1786 1781 1840 1904 1939 1963 1891 1808 1749 1669 1458 1342 1296 1499 1679 2356 2950 3452 3869 3996 4178 4380 4484 4636 4787 4818 4846 4848 5110 5368 5490 5486 5404 5319 5265 5160 5065 4950 4832 4679 4554 4578 4616 4702 4715 4689 4575 4490
0 0 0 0 0 0 0 0 0 0 0 0 0 1 6 6 13 32 2 3 4 13 4 0 0 0 0 1 140 228 739 837 845 869 929 1024 1298 1487 1517 1735 1783 1719 1786 1882 1824 1955 1954 1654 1477 1431 1298 1424 1579 1948 2490 2822 3163 3670 3836 3923 4170 4478 4498 4616 4734 4728 4650 4557 4549 4618 4658 4614 4555 4523 4556 4558 4519 4504 4499 4410 4258 4226 4152 4046 4098 4156 4107
0 0 0 0 0 0 0 0 0 0 0 0 0 0 0 0 4 27 15 6 3 18 25 37 15 2 0 2 24 30 369 702 783 860 869 906 1093 1573 1602 1683 1615 1567 1560 1686 1688 1664 1562 1387 1322 1293 1220 1470 1597 2086 2534 2671 2858 3214 3603 3745 3827 4169 4395 4534 4608 4607 4541 4525 4495 4488 4401 4331 4331 4330 4364 4426 4432 4299 4234 4144 4086 3954 3862 3846 3837 3764 3734
0 0 0 0 0 0 0 0 0 0 0 0 0 0 0 0 0 0 1 0 0 2 14 34 50 69 29 3 17 478 552 584 636 676 717 796 917 1208 1365 1432 1416 1434 1454 1446 1389 1346 1312 1340 1297 1250 1310 1474 1597 1818 2216 2306 2521 2624 2911 3243 3410 3564 3846 4172 4393 4449 4390 4386 4382 4382 4355 4137 4120 4118 4000 3976 3966 3878 3774 3855 3832 3667 3597 3632 3563 3494 3314
0 0 0 0 0 0 0 0 0 0 0 0 0 0 0 0 0 0 0 0 0 0 0 6 32 56 58 35 212 542 592 648 583 519 603 697 850 976 1164 1218 1242 1205 1224 1285 1270 1268 1245 1302 1208 1285 1432 1526 1456 1517 1695 2032 2228 2391 2525 2727 2900 3124 3240 3387 3778 4201 4293 4271 4231 4146 4116 4034 3766 3617 3871 3638 3446 3520 3252 2941 2929 3058 3270 3130 2948 2818 2501
0 0 1 2 2 1 0 0 0 0 0 0 0 0 0 0 0 0 0 0 0 0 0 0 0 5 25 175 610 580 571 525 476 434 223 479 561 727 888 1028 1150 1226 1221 1182 1160 1130 1239 1307 1258 1177 1380 1568 1351 1397 1435 1630 1884 2098 2231 2364 2444 2560 2757 3042 3154 3324 3651 3912 3571 3439 3390 3088 3109 3164 3172 3016 2950 2995 2890 2862 2742 2780 2931 2871 2626 2361 1566
0 0 2 6 4 1 0 0 0 0 0 0 0 0 0 0 0 0 0 0 0 0 0 0 0 0 1 327 622 613 504 440 335 278 266 245 347 472 620 783 950 1138 1212 1161 1047 1059 1128 1250 1280 1104 1232 1321 1303 1232 1338 1368 1446 1621 1756 1824 2041 2298 2386 2532 2757 2938 3036 3225 3101 2926 2782 2714 2589 2631 2643 2488 2426 2466 2496 2470 2471 2393 2291 2141 1817 1335 196
4 0 0 0 1 0 0 0 0 0 0 0 0 0 0 0 0 0 0 0 0 0 0 0 0 0 22 393 438 444 375 242 179 166 159 161 222 110 468 636 826 978 1046 1055 1087 975 1039 1116 1148 1100 1146 1164 1176 1212 1304 1258 1328 1397 1403 1385 1390 1573 1904 2183 2301 2371 2451 2441 2445 2482 2434 2355 2427 2400 2320 2174 2107 2024 1915 1851 1844 1776 1765 1568 818 0 0
13 5 4 3 1 0 0 0 0 0 0 0 0 0 0 0 0 0 0 0 0 0 0 0 0 4 112 212 307 294 212 102 80 76 90 101 193 318 444 596 772 851 908 942 970 985 1035 1061 1034 1039 1130 1142 1083 1002 1043 1058 1151 1216 1235 1181 1075 950 1085 1235 1552 1780 1845 1873 1945 1959 1955 2002 1990 1968 1973 1952 1889 1835 1721 1563 1416 1280 1075 230 0 0 0
2 3 7 6 6 5 6 6 5 7 4 0 0 0 0 0 0 0 0 0 0 0 0 0 16 94 115 150 199 176 136 81 58 62 91 123 190 305 379 449 506 661 828 916 1009 1044 997 1010 902 850 906 1020 900 701 695 768 875 992 1036 1053 994 885 894 976 1046 1153 1360 1570 1713 1597 1544 1582 1653 1669 1632 1647 1701 1674 1506 1294 1163 815 90 0 0 0 0
1 1 4 4 4 3 2 2 1 1 1 1 0 0 0 0 0 0 0 0 0 0 0 28 38 102 84 90 94 110 94 54 64 113 176 197 211 273 302 344 378 458 594 668 825 1010 998 945 834 753 750 818 798 726 590 611 684 750 811 878 860 862 841 751 783 865 862 938 1123 1179 1180 1269 1232 1191 1190 1206 1185 1031 794 513 72 0 0 0 0 0 0
7 4 0 1 8 12 3 2 3 1 0 0 0 14 0 0 0 0 0 0 0 0 23 6 15 53 68 67 68 73 63 56 53 85 159 238 203 188 245 281 282 318 334 472 526 794 937 958 788 754 646 701 692 682 632 522 521 518 526 575 620 626 601 658 668 635 607 600 578 607 642 605 616 669 603 423 93 0 0 0 0 0 0 0 0 0 0
5 5 3 0 0 2 2 3 5 3 0 0 1 1 0 0 0 0 0 2 4 16 48 27 19 24 28 36 52 56 57 58 60 53 102 147 180 183 237 266 274 263 155 336 357 494 656 679 701 716 580 536 588 615 562 554 484 389 256 26 278 0 0 231 223 396 465 407 347 289 0 0 0 0 0 0 0 0 0 0 0 0 0 0 0 0 0
4 4 1 0 0 0 1 1 0 1 2 1 2 1 0 0 0 2 30 41 30 28 42 38 23 11 9 23 45 52 51 53 54 60 63 126 119 170 223 228 200 247 268 278 0 358 435 556 637 538 534 445 459 492 435 344 378 63 414 228 0 0 0 0 0 0 0 0 0 0 0 0 0 0 0 0 0 0 0 0 0 0 0 0 0 0 0
8 5 3 2 0 0 0 3 4 3 3 1 1 1 1 0 0 0 11 52 83 48 27 17 18 19 15 15 24 32 28 19 33 57 60 66 118 131 159 160 112 0 51 6 22 67 107 149 348 70 254 0 76 198 78 280 356 130 145 119 124 144 265 285 224 225 206 161 144 131 108 47 0 0 0 23 60 54 42 28 18 11 9 7 8 7 8
8 5 1 1 3 3 2 1 5 5 1 1 0 1 0 0 0 0 0 2 18 32 23 4 10 11 12 18 28 27 19 19 10 9 64 53 41 0 0 0 0 0 0 0 0 0 0 3 4 6 32 48 1 0 0 0 0 1 7 0 0 0 0 30 81 4 8 0 0 0 83 106 99 65 0 0 0 0 0 5 21 25 32 35 31 18 0
2 4 3 2 6 8 9 8 2 4 1 4 5 1 0 0 0 0 0 0 3 4 7 8 7 9 9 19 16 0 0 1 0 22 0 33 7 0 0 2 0 0 0 0 0 0 0 3 4 4 5 4 9 8 5 0 0 59 80 66 29 0 0 0 0 0 0 0 0 0 0 0 0 0 0 0 0 0 0 0 0 0 0 0 0 0 0
0 0 2 5 7 10 9 10 15 12 6 2 4 5 4 0 0 0 0 1 4 5 5 4 5 14 17 13 0 14 0 0 0 13 5 13 6 0 0 0 0 0 0 0 0 0 1 2 1 2 1 0 0 0 0 0 0 0 0 0 0 0 0 0 0 0 0 0 0 0 0 0 0 0 0 0 0 0 0 0 0 0 0 0 0 0 0
7 0 0 2 7 10 7 5 2 3 16 17 16 6 7 8 4 0 0 1 0 3 0 2 3 2 2 4 0 1 2 0 2 8 6 10 0 2 3 3 0 0 0 0 0 0 0 0 0 0 0 0 0 0 0 0 0 0 0 0 0 0 0 0 0 0 0 0 0 0 0 0 0 0 0 0 0 0 0 0 0 0 0 0 0 0 0
33 9 1 0 0 4 5 3 5 6 4 10 14 5 0 4 12 7 0 0 0 0 2 1 0 0 0 0 2 5 2 4 0 3 0 5 4 7 6 2 1 0 0 0 0 0 0 0 0 0 0 0 0 1 0 0 0 0 0 0 0 0 0 0 0 0 0 0 0 0 0 0 0 0 0 0 0 0 0 0 0 0 0 0 0 0 0
63 48 37 14 13 18 19 10 4 1 1 2 5 15 9 0 4 10 3 3 6 4 0 4 4 9 11 2 1 13 10 1 0 0 2 1 3 4 7 10 8 2 0 0 0 0 0 0 0 0 0 3 6 8 9 8 4 0 0 1 0 0 0 0 0 0 0 0 0 0 0 0 0 0 0 0 0 0 0 0 0 0 0 0 0 0 0
52 47 38 37 45 41 40 32 18 4 1 2 8 15 20 12 4 0 6 6 12 22 20 12 3 1 0 1 0 2 20 14 2 0 0 2 7 11 9 8 4 0 0 0 0 0 0 0 0 0 0 0 0 0 0 0 0 1 1 0 0 0 0 0 0 0 0 0 0 0 0 0 0 0 0 0 0 0 0 0 0 0 0 0 0 0 0
66 11 8 61 86 95 63 40 33 28 25 24 18 20 19 15 12 11 8 4 0 8 17 24 37 31 15 4 0 6 5 7 2 3 2 0 0 1 2 0 0 0 0 0 0 0 0 0 0 0 2 2 1 0 0 0 0 0 0 0 0 0 0 0 0 0 0 0 0 0 0 0 0 0 0 0 0 0 0 0 0 0 0 0 0 0 0
52 30 48 19 12 35 82 51 33 56 56 32 43 51 50 35 24 20 16 11 9 10 9 10 11 17 36 51 65 37 24 6 0 0 3 2 0 0 0 0 0 0 0 0 0 0 0 0 0 0 1 0 0 0 0 0 0 0 0 0 0 0 0 0 0 0 0 0 0 0 0 0 0 0 0 0 0 0 0 0 0 0 0 0 0 0 0
29 65 63 22 17 16 10 6 70 93 89 58 32 74 80 75 55 52 72 47 44 35 14 12 10 9 6 4 8 13 20 32 22 4 0 0 0 0 0 0 0 0 0 0 0 0 0 0 0 0 0 0 0 0 0 0 0 0 0 0 0 0 0 0 0 0 0 0 0 0 0 0 0 0 0 0 0 0 0 0 0 0 0 0 0 0 0
26 26 18 61 17 9 7 2 66 52 3 1 1 19 32 57 50 48 79 51 27 23 6 11 16 21 15 16 18 17 12 18 30 15 9 4 2 4 1 0 0 0 0 0 0 0 0 0 0 0 0 0 0 0 0 0 0 0 0 0 0 0 0 0 0 0 0 0 0 0 0 0 0 0 0 0 0 0 0 0 0 0 0 0 0 0 0
26 27 26 20 20 20 13 3 4 9 31 104 62 3 6 3 60 61 38 22 9 5 4 4 3 3 12 22 31 20 34 31 28 32 30 1 0 0 0 0 0 0 0 0 0 0 0 0 0 0 0 0 0 0 0 0 0 0 0 0 0 0 0 0 0 0 0 0 0 0 0 0 0 0 0 0 0 0 0 0 0 0 0 0 0 0 0
Wind_Speed
nan nan nan nan nan nan nan nan nan nan nan nan nan nan nan nan nan nan nan nan nan nan nan nan nan nan nan nan nan nan nan nan 14 13 11 9 6 2 0 2 6 7 12 16 14 11 9 8 8 7 5 3 2 1 2 3 4 3 6 5 5 4 4 3 3 4 6 6 4 3 1 2 3 3 3 2 1 2 2 2 1 3 4 5 6 8 8
nan nan nan nan nan nan nan nan nan nan nan nan nan nan nan nan nan nan nan nan nan nan nan nan nan nan nan nan 24 25 nan nan 15 14 12 11 6 2 5 5 3 6 11 15 16 13 12 9 9 9 6 3 2 4 3 1 1 4 5 4 4 3 3 2 3 5 5 5 3 1 1 1 1 1 1 1 1 2 1 1 1 2 3 5 6 7 8
nan nan nan nan nan nan nan nan nan nan nan nan nan nan nan nan nan nan nan nan nan nan nan nan nan 34 nan 33 30 27 nan nan 17 14 12 12 6 3 8 6 5 11 12 14 16 12 8 7 7 7 5 2 2 3 4 4 3 3 2 3 4 5 6 4 4 5 6 4 3 2 2 2 2 2 2 2 1 1 1 1 3 3 3 5 6 6 7
nan nan nan nan nan nan nan nan nan nan nan nan nan nan nan nan nan nan nan nan nan nan nan 43 43 43 43 38 35 34 29 24 19 16 15 12 6 2 6 6 9 12 13 15 13 7 4 4 6 7 5 3 3 4 4 5 4 3 3 3 4 6 6 4 3 3 5 5 3 2 3 3 3 3 3 3 2 2 2 2 2 2 3 4 5 5 4
nan nan nan nan nan nan nan nan nan nan nan nan nan nan 50 42 28 nan nan nan nan nan nan 43 47 49 47 45 39 38 38 30 23 19 16 13 7 2 4 8 10 11 11 11 10 9 9 7 6 5 6 5 3 3 2 2 1 2 3 3 3 4 4 3 3 1 1 2 3 3 4 4 4 5 4 3 2 2 2 1 2 1 2 3 4 4 4
nan nan nan nan nan nan nan nan nan nan nan 47 58 59 52 48 43 26 23 nan nan nan nan 43 45 52 44 41 41 38 35 33 29 25 22 21 21 18 16 13 12 16 19 19 17 14 12 10 8 11 11 7 7 7 6 5 2 1 2 2 1 2 2 3 3 2 2 3 3 4 5 5 5 5 5 3 3 3 4 4 1 0 1 3 3 3 4
nan nan nan nan nan nan nan nan 62 66 56 50 50 69 68 55 54 47 41 nan nan 34 38 42 44 46 47 51 51 47 40 35 33 32 31 30 29 27 26 27 27 27 26 27 26 24 21 18 18 19 17 15 15 14 12 10 7 6 4 4 3 2 1 2 4 4 4 4 4 5 6 7 7 5 5 4 5 6 6 3 2 1 1 2 2 2 3
nan nan nan nan nan nan nan nan 66 73 nan nan 60 65 63 58 53 48 42 47 42 38 40 42 41 49 52 53 48 44 40 36 35 36 33 32 33 31 28 28 27 27 28 28 28 26 26 25 24 21 21 20 19 15 15 13 11 10 9 7 6 5 3 3 5 6 7 7 6 7 8 8 8 7 5 5 5 8 8 7 7 6 5 3 1 1 1
nan nan nan nan nan nan nan nan nan nan nan 57 57 56 58 60 56 53 50 50 51 44 41 40 39 48 54 50 43 39 38 37 37 36 33 33 31 29 28 28 26 25 26 28 28 29 31 31 30 27 25 24 22 20 18 16 14 12 10 8 7 6 5 5 6 8 9 10 9 10 10 10 9 8 7 6 7 11 10 8 8 6 4 3 4 3 2
nan nan nan nan nan nan nan nan nan 59 51 55 55 54 58 65 62 57 55 53 48 52 47 40 39 52 53 46 40 37 37 37 37 37 36 34 33 30 29 28 29 28 27 27 27 28 29 33 32 32 30 25 22 20 16 16 15 13 10 8 7 7 7 6 7 9 11 12 12 12 12 11 10 8 8 10 10 12 10 9 8 6 8 8 8 7 4
nan nan nan nan nan nan nan nan 68 69 66 58 53 52 63 64 65 61 57 56 55 51 51 52 40 52 47 41 39 36 38 40 39 39 38 37 35 32 30 30 29 28 27 26 26 28 30 31 29 29 29 29 26 23 20 16 12 9 8 8 8 8 9 9 8 9 11 12 13 14 14 13 12 10 9 11 12 13 12 11 9 11 12 11 9 8 6
nan nan nan nan nan nan nan nan 70 71 70 65 51 57 59 64 66 65 61 63 63 60 59 55 62 55 48 43 42 40 43 44 44 43 41 41 39 35 32 31 27 27 28 31 31 30 29 27 25 27 27 27 27 27 26 23 19 15 11 10 11 12 12 11 10 10 11 12 12 13 15 15 14 12 10 13 14 13 12 12 13 13 13 11 8 8 8
nan nan nan nan nan nan nan nan nan nan 68 61 62 59 58 63 66 68 65 66 66 64 65 65 64 60 54 49 47 48 47 50 49 45 43 42 41 39 37 34 30 30 30 30 29 28 26 27 28 29 29 29 29 28 27 27 25 22 20 18 17 15 14 13 12 11 12 12 12 12 14 16 16 14 12 11 13 13 13 14 14 14 12 11 10 10 11
nan nan nan nan nan nan nan nan nan nan 63 67 64 62 61 65 71 70 68 67 66 67 68 64 62 60 58 54 53 53 52 50 48 46 45 45 45 42 39 39 36 33 32 31 31 32 31 32 33 33 32 33 31 31 31 31 29 26 25 22 19 18 17 16 14 13 13 14 14 13 14 16 16 15 14 12 12 12 14 15 14 13 13 13 13 13 14
nan nan nan nan nan nan nan nan nan nan nan 65 69 67 66 68 75 74 71 69 67 67 67 65 61 60 59 57 55 54 52 52 51 47 44 43 43 42 41 42 40 38 36 34 33 30 30 32 33 34 35 35 32 31 33 31 30 29 28 26 21 19 18 18 17 15 15 16 17 17 15 16 17 17 17 15 14 14 13 14 13 13 13 14 14 15 16
nan nan nan nan nan nan nan nan nan nan nan 62 70 71 66 68 77 76 72 72 69 68 67 65 62 62 60 57 55 52 52 51 49 47 43 41 40 40 39 39 37 36 34 32 30 29 29 30 31 32 33 34 33 32 32 30 30 30 29 28 24 22 21 20 20 19 19 19 19 19 17 18 17 18 19 17 16 16 15 14 14 13 14 15 15 14 15
nan nan nan nan nan nan nan nan nan nan nan 71 75 77 66 65 78 79 74 74 72 70 68 66 64 65 64 60 56 53 51 50 48 46 43 41 41 39 38 39 38 36 34 31 29 29 29 30 30 29 30 32 32 34 32 30 31 31 30 30 26 23 23 23 23 23 23 23 22 22 22 22 20 20 21 21 19 18 17 15 14 14 14 16 15 15 16
nan nan nan nan nan nan nan nan nan nan nan nan 77 80 68 64 77 84 79 76 75 73 71 67 65 66 63 63 61 57 54 54 52 50 49 47 45 43 42 42 41 39 38 37 35 33 32 31 30 29 29 30 31 28 29 31 31 31 30 29 27 24 24 24 24 26 26 26 25 25 27 27 25 24 23 22 21 21 20 18 17 17 17 19 18 18 18
nan nan nan nan nan nan nan nan nan nan nan nan nan 78 66 nan 73 86 85 80 78 76 75 72 67 66 64 62 62 59 55 56 55 54 53 50 48 48 49 48 47 46 44 42 40 37 36 33 32 31 31 29 27 27 29 30 31 31 30 29 28 26 23 24 25 25 26 27 29 32 32 33 31 28 26 24 24 25 24 23 22 22 23 23 22 23 21
nan nan nan nan nan nan nan nan nan nan nan nan nan 77 64 54 65 74 79 79 80 77 77 75 71 67 65 64 62 60 57 56 55 52 52 49 47 46 48 51 51 50 49 46 43 40 38 36 33 33 32 31 29 29 30 30 30 31 30 29 28 25 23 23 23 24 25 27 30 33 36 37 36 33 31 29 27 27 27 28 27 26 26 25 25 25 25
nan nan nan nan nan nan nan nan nan nan nan nan nan nan 73 64 62 69 70 71 74 76 76 74 72 69 66 65 63 60 58 57 57 53 49 45 40 39 45 49 51 49 48 47 44 43 40 38 36 34 33 32 31 31 31 30 30 30 30 29 29 27 25 25 25 26 27 29 32 35 37 41 42 38 35 35 33 34 36 34 30 29 28 28 27 29 31
nan nan nan nan nan nan nan nan nan nan nan nan nan nan nan nan 71 67 66 66 67 71 74 74 71 67 62 63 61 61 59 59 57 54 48 45 41 39 40 45 47 47 47 47 46 44 41 39 38 36 34 33 32 31 31 30 30 30 29 29 29 30 29 28 29 30 32 34 34 35 36 36 38 40 44 46 42 37 35 39 41 36 35 33 35 37 41
nan nan nan nan nan nan nan nan nan nan nan nan nan nan nan nan nan 73 67 65 67 68 68 68 nan 65 61 60 nan 62 62 61 58 55 49 46 44 42 42 45 46 45 45 45 47 47 44 41 41 39 36 34 33 32 31 30 30 29 28 28 28 30 30 31 30 32 34 35 34 35 35 36 37 39 40 44 50 50 45 46 50 51 51 51 49 43 44
nan nan nan nan nan nan nan nan nan nan nan nan nan nan nan nan nan nan nan 69 66 66 67 69 69 68 nan nan nan 64 64 63 61 56 51 49 46 42 43 44 43 43 43 44 45 45 44 44 42 40 38 36 34 33 32 32 31 30 29 30 29 30 31 31 33 34 34 35 35 36 36 36 37 38 41 43 44 49 50 51 54 55 55 55 55 54 53
nan nan nan nan nan nan nan nan nan nan nan nan nan nan nan nan nan nan nan nan nan nan nan nan nan nan nan nan nan nan 65 63 59 55 53 54 54 46 43 41 40 40 40 41 43 43 45 45 44 42 41 37 35 34 33 33 33 32 32 33 32 32 33 34 35 35 36 36 37 38 38 38 37 38 41 42 45 44 46 51 55 55 55 55 55 55 55
nan nan nan nan nan nan nan nan nan nan nan nan nan nan nan nan nan nan nan nan nan nan nan nan nan nan nan nan nan nan 67 64 59 56 55 57 56 52 46 43 41 41 41 42 42 43 44 45 45 44 42 39 37 36 35 35 35 35 36 36 35 34 34 36 38 37 37 38 39 39 40 40 40 40 40 42 43 45 46 45 49 52 54 55 55 57 56
nan nan nan nan nan nan nan nan nan nan nan nan nan nan nan nan nan nan nan nan nan nan nan nan nan nan nan nan 69 69 66 63 61 59 56 57 57 54 51 49 50 49 47 44 44 45 46 45 46 46 44 41 39 37 37 37 38 38 38 40 38 41 44 40 39 40 40 41 42 42 42 43 43 44 44 43 43 44 45 47 48 48 48 49 50 53 54
nan nan nan nan nan nan nan nan nan nan nan nan nan nan nan nan nan nan nan nan nan nan nan nan nan nan nan nan nan nan 65 64 63 60 60 59 57 57 59 57 55 54 52 47 44 44 45 45 45 45 45 43 42 40 39 40 41 40 39 40 42 41 42 43 42 43 43 44 44 45 46 46 47 48 47 47 47 47 48 49 50 50 49 50 50 51 57
nan nan nan nan nan nan nan nan nan nan nan nan nan nan nan nan nan nan nan nan nan nan nan nan nan nan nan nan nan 60 60 60 62 62 62 62 62 63 64 62 57 57 55 50 46 45 45 45 44 46 45 44 44 44 43 43 44 42 41 41 43 44 44 44 44 45 46 47 47 48 49 49 49 50 50 50 50 50 50 50 51 51 51 50 52 54 56
nan nan nan nan nan nan nan nan nan nan nan nan nan nan nan nan nan nan nan nan nan nan nan nan nan nan nan nan 61 60 61 61 63 65 67 69 69 70 70 67 65 61 58 55 49 45 45 44 43 45 45 44 44 45 46 46 46 45 44 45 46 45 44 45 47 49 49 50 51 53 52 51 51 52 53 52 52 54 54 54 52 52 53 53 53 55 56
nan nan nan nan nan nan nan nan nan nan nan nan nan nan nan nan nan nan nan nan nan nan nan nan nan nan nan 68 68 68 67 67 69 71 72 73 74 73 72 71 67 61 58 55 50 46 45 45 43 44 44 43 43 45 47 48 47 48 49 49 50 54 56 55 52 50 50 51 52 51 51 52 51 52 53 53 54 54 54 54 55 54 55 55 55 55 56
nan nan nan nan nan nan nan nan nan nan nan nan nan nan nan nan nan nan nan nan nan nan nan nan nan nan nan 65 71 74 73 71 71 71 70 69 69 67 65 64 62 59 57 55 53 49 44 44 46 43 43 43 45 48 52 52 51 53 53 53 54 54 55 58 55 56 55 54 54 53 53 52 52 51 52 53 54 55 55 55 56 56 56 57 56 56 54
nan nan nan nan nan nan nan nan nan nan nan nan nan nan nan nan nan nan nan nan nan nan nan nan nan nan nan 61 63 65 65 64 64 63 62 61 59 57 55 54 54 54 53 52 48 46 43 43 42 41 42 44 46 49 52 54 53 54 54 56 57 58 58 59 59 59 60 60 58 57 58 58 56 56 55 55 55 55 56 57 57 57 57 58 58 nan nan
nan nan nan nan nan nan nan nan nan nan nan nan nan nan nan nan nan nan nan nan nan nan nan nan nan nan 67 63 61 58 56 56 nan nan nan 54 52 50 49 49 49 50 50 50 47 46 43 41 41 41 43 44 46 47 49 52 54 54 55 57 59 60 61 60 62 62 62 62 61 63 62 61 61 59 58 58 59 59 60 61 61 61 61 61 nan nan nan
nan nan nan nan nan nan nan nan nan nan nan nan nan nan nan nan nan nan nan nan nan nan nan nan nan nan 69 70 70 68 65 nan nan nan nan 56 54 52 51 51 51 52 54 54 53 49 45 43 44 45 47 48 49 49 49 52 54 56 57 58 59 60 61 63 64 63 63 62 63 64 64 63 62 62 63 63 63 63 64 64 64 64 nan nan nan nan nan
nan nan nan nan nan nan nan nan nan nan nan nan nan nan nan nan nan nan nan nan nan nan nan nan nan 72 nan nan nan 76 nan nan nan 67 65 63 61 59 60 61 59 59 59 61 59 54 51 49 56 59 55 54 55 55 55 55 57 59 60 61 62 62 63 64 64 64 64 64 66 66 66 68 67 66 65 65 66 66 67 67 nan nan nan nan nan nan nan
nan nan nan nan nan nan nan nan nan nan nan nan nan nan nan nan nan nan nan nan nan nan nan nan nan nan nan nan nan nan nan nan nan nan 71 69 68 70 69 68 66 65 64 66 62 59 58 59 62 64 61 59 59 60 60 62 60 61 63 65 65 66 67 67 66 67 67 66 67 67 68 67 67 67 67 67 nan nan nan nan nan nan nan nan nan nan nan
nan nan nan nan nan nan nan nan nan nan nan nan nan nan nan nan nan nan nan nan nan nan nan nan nan nan nan nan nan nan nan nan nan nan 76 75 74 76 74 71 68 66 67 65 61 64 64 64 65 61 60 61 60 60 63 67 68 65 65 nan 67 nan nan 68 68 69 69 69 69 69 nan nan nan nan nan nan nan nan nan nan nan nan nan nan nan nan nan
nan nan nan nan nan nan nan nan nan nan nan nan nan nan nan nan nan nan nan nan nan nan nan nan nan nan nan nan nan nan nan nan nan nan nan 76 76 78 72 68 65 63 63 62 nan 65 65 64 61 61 62 62 59 56 62 68 69 nan 65 66 nan nan nan nan nan nan nan nan nan nan nan nan nan nan nan nan nan nan nan nan nan nan nan nan nan nan nan
nan nan nan nan nan nan nan nan nan nan nan nan nan nan nan nan nan nan nan nan nan nan nan nan nan nan nan nan nan nan nan nan nan nan nan nan 73 72 69 68 66 nan nan nan nan nan 65 67 62 nan 62 nan nan 53 nan 60 63 63 66 65 62 61 61 64 67 70 71 71 73 74 72 nan nan nan nan nan nan nan nan nan nan nan nan nan nan nan nan
nan nan nan nan nan nan nan nan nan nan nan nan nan nan nan nan nan nan nan nan nan nan nan nan nan nan nan nan nan nan nan nan nan nan nan nan nan nan nan nan nan nan nan nan nan nan nan nan nan nan nan nan nan nan nan nan nan nan nan nan nan nan nan nan nan nan nan nan nan nan nan 73 nan nan nan nan nan nan nan nan nan nan nan nan nan nan nan
nan nan nan nan nan nan nan nan nan nan nan nan nan nan nan nan nan nan nan nan nan nan nan nan nan nan nan nan nan nan nan nan nan nan nan nan nan nan nan nan nan nan nan nan nan nan nan nan nan nan nan nan nan nan nan nan nan nan nan nan nan nan nan nan nan nan nan nan nan nan nan nan nan nan nan nan nan nan nan nan nan nan nan nan nan nan nan
nan nan nan nan nan nan nan nan nan nan nan nan nan nan nan nan nan nan nan nan nan nan nan nan nan nan nan nan nan nan nan nan nan nan nan nan nan nan nan nan nan nan nan nan nan nan nan nan nan nan nan nan nan nan nan nan nan nan nan nan nan nan nan nan nan nan nan nan nan nan nan nan nan nan nan nan nan nan nan nan nan nan nan nan nan nan nan
nan nan nan nan nan nan nan nan nan nan nan nan nan nan nan nan nan nan nan nan nan nan nan nan nan nan nan nan nan nan nan nan nan nan nan nan nan nan nan nan nan nan nan nan nan nan nan nan nan nan nan nan nan nan nan nan nan nan nan nan nan nan nan nan nan nan nan nan nan nan nan nan nan nan nan nan nan nan nan nan nan nan nan nan nan nan nan
nan nan nan nan nan nan nan nan nan nan nan nan nan nan nan nan nan nan nan nan nan nan nan nan nan nan nan nan nan nan nan nan nan nan nan nan nan nan nan nan nan nan nan nan nan nan nan nan nan nan nan nan nan nan nan nan nan nan nan nan nan nan nan nan nan nan nan nan nan nan nan nan nan nan nan nan nan nan nan nan nan nan nan nan nan nan nan
nan nan nan nan nan nan nan nan nan nan nan nan nan nan nan nan nan nan nan nan nan nan nan nan nan nan nan nan nan nan nan nan nan nan nan nan nan nan nan nan nan nan nan nan nan nan nan nan nan nan nan nan nan nan nan nan nan nan nan nan nan nan nan nan nan nan nan nan nan nan nan nan nan nan nan nan nan nan nan nan nan nan nan nan nan nan nan
nan nan nan nan nan nan nan nan nan nan nan nan nan nan nan nan nan nan nan nan nan nan nan nan nan nan nan nan nan nan nan nan nan nan nan nan nan nan nan nan nan nan nan nan nan nan nan nan nan nan nan nan nan nan nan nan nan nan nan nan nan nan nan nan nan nan nan nan nan nan nan nan nan nan nan nan nan nan nan nan nan nan nan nan nan nan nan
nan nan nan nan nan nan nan nan nan nan nan nan nan nan nan nan nan nan nan nan nan nan nan nan nan nan nan nan nan nan nan nan nan nan nan nan nan nan nan nan nan nan nan nan nan nan nan nan nan nan nan nan nan nan nan nan nan nan nan nan nan nan nan nan nan nan nan nan nan nan nan nan nan nan nan nan nan nan nan nan nan nan nan nan nan nan nan
nan nan nan nan nan nan nan nan nan nan nan nan nan nan nan nan nan nan nan nan nan nan nan nan nan nan nan nan nan nan nan nan nan nan nan nan nan nan nan nan nan nan nan nan nan nan nan nan nan nan nan nan nan nan nan nan nan nan nan nan nan nan nan nan nan nan nan nan nan nan nan nan nan nan nan nan nan nan nan nan nan nan nan nan nan nan nan
nan nan nan nan nan nan nan nan nan nan nan nan nan nan nan nan nan nan nan nan nan nan nan nan nan nan nan nan nan nan nan nan nan nan nan nan nan nan nan nan nan nan nan nan nan nan nan nan nan nan nan nan nan nan nan nan nan nan nan nan nan nan nan nan nan nan nan nan nan nan nan nan nan nan nan nan nan nan nan nan nan nan nan nan nan nan nan
nan nan nan nan nan nan nan nan nan nan nan nan nan nan nan nan nan nan nan nan nan nan nan nan nan nan nan nan nan nan nan nan nan nan nan nan nan nan nan nan nan nan nan nan nan nan nan nan nan nan nan nan nan nan nan nan nan nan nan nan nan nan nan nan nan nan nan nan nan nan nan nan nan nan nan nan nan nan nan nan nan nan nan nan nan nan nan
nan nan nan nan nan nan nan nan nan nan nan 11 nan nan nan nan nan nan nan nan nan nan nan nan nan nan nan nan nan nan nan nan nan nan nan nan nan nan nan nan nan nan nan nan nan nan nan nan nan nan nan nan nan nan nan nan nan nan nan nan nan nan nan nan nan nan nan nan nan nan nan nan nan nan nan nan nan nan nan nan nan nan nan nan nan nan nan
Wind_Direction
nan nan nan nan nan nan nan nan nan nan nan nan nan nan nan nan nan nan nan nan nan nan nan nan nan nan nan nan nan nan nan nan 296 294 302 308 313 294 171 321 293 245 219 219 218 216 224 219 201 200 192 167 150 86 305 273 246 235 226 215 207 201 200 196 193 202 197 187 181 174 124 82 73 70 68 71 60 56 46 46 29 13 9 8 7 2 355
nan nan nan nan nan nan nan nan nan nan nan nan nan nan nan nan nan nan nan nan nan nan nan nan nan nan nan nan 235 233 nan nan 289 302 304 309 311 34 72 37 334 203 202 209 211 216 216 210 205 210 205 177 77 41 24 5 188 208 220 201 193 166 124 131 200 217 211 200 197 224 325 24 26 27 54 28 14 35 37 30 17 2 10 15 9 6 4
nan nan nan nan nan nan nan nan nan nan nan nan nan nan nan nan nan nan nan nan nan nan nan nan nan 218 nan 219 232 247 nan nan 279 289 287 283 294 57 79 87 150 185 195 203 209 215 221 215 218 219 207 152 99 61 54 68 110 155 168 159 135 111 104 140 188 209 212 208 226 283 322 304 297 317 330 282 292 349 0 359 13 1 2 15 11 4 8
nan nan nan nan nan nan nan nan nan nan nan nan nan nan nan nan nan nan nan nan nan nan nan 213 217 223 225 225 232 240 247 261 263 284 282 271 280 70 99 126 168 183 197 207 206 208 214 226 233 223 212 186 156 88 72 78 101 154 116 107 105 110 109 133 162 195 209 223 245 293 299 320 312 289 266 272 279 305 346 11 0 334 3 13 9 3 7
nan nan nan nan nan nan nan nan nan nan nan nan nan nan 206 195 192 nan nan nan nan nan nan 224 219 225 225 224 223 237 240 245 265 274 279 271 257 229 156 163 165 173 193 203 207 207 208 208 213 216 231 222 170 142 128 119 169 106 79 64 77 85 74 67 69 81 225 265 303 317 327 320 297 278 277 271 274 291 359 333 256 319 9 351 9 15 18
nan nan nan nan nan nan nan nan nan nan nan 217 211 202 194 191 195 189 185 nan nan nan nan 231 228 229 223 225 224 223 236 241 235 234 237 235 225 214 200 192 184 184 185 190 192 199 202 198 196 204 210 207 197 202 204 207 204 115 102 97 69 48 34 19 9 348 330 333 332 330 315 307 298 300 295 290 265 249 240 241 239 36 325 352 3 29 38
nan nan nan nan nan nan nan nan 194 194 197 212 216 204 194 184 184 187 197 nan nan 211 233 239 237 239 235 229 225 225 226 234 235 233 232 230 227 219 211 202 195 192 190 193 195 194 194 196 197 198 194 192 200 203 204 202 200 192 171 171 207 254 315 319 309 306 306 306 304 294 296 296 297 307 308 272 255 244 246 254 250 233 262 315 342 16 37
nan nan nan nan nan nan nan nan 191 190 nan nan 195 201 190 185 184 188 197 201 206 218 226 235 235 240 241 234 227 224 223 223 228 230 230 231 231 226 216 214 204 201 198 199 200 196 197 199 197 194 194 199 206 205 207 205 200 194 190 183 193 225 262 287 295 295 299 296 293 290 292 290 297 306 300 285 263 243 236 226 218 215 210 220 285 344 8
nan nan nan nan nan nan nan nan nan nan nan 180 184 194 189 182 181 192 198 204 204 205 213 224 232 238 236 232 225 219 218 218 222 227 228 230 231 231 226 226 223 214 209 208 205 204 205 205 203 198 197 203 207 207 208 206 203 198 193 182 186 214 236 268 284 294 298 301 301 301 297 299 306 301 284 267 244 236 232 228 227 227 222 230 228 226 234
nan nan nan nan nan nan nan nan nan 175 180 175 173 184 190 181 184 194 203 204 203 203 191 196 214 235 232 223 220 213 215 215 222 225 227 228 227 227 229 229 227 223 220 219 213 211 212 211 207 202 202 208 209 211 211 207 206 197 189 179 194 211 226 251 272 285 294 301 304 304 302 311 311 290 266 246 245 241 236 233 228 223 225 222 222 223 227
nan nan nan nan nan nan nan nan 166 167 175 175 175 185 191 182 185 193 199 200 196 198 195 189 198 230 227 222 216 212 216 218 220 226 226 227 227 226 226 227 227 223 224 226 224 218 214 210 203 203 205 208 211 208 204 206 212 202 183 190 212 213 222 238 256 273 284 296 303 308 313 316 310 300 272 250 243 242 232 228 225 227 231 231 230 233 233
nan nan nan nan nan nan nan nan 165 168 170 174 181 190 189 182 184 190 197 199 192 193 195 199 208 215 227 219 217 215 218 222 222 225 226 226 225 224 223 224 226 226 227 227 223 219 215 208 204 206 206 209 209 206 204 205 203 196 197 213 226 225 231 238 242 256 268 284 294 305 313 311 310 308 278 248 242 244 236 229 227 230 234 237 244 245 245
nan nan nan nan nan nan nan nan nan nan 169 182 194 195 191 184 186 191 197 201 200 199 204 203 212 207 211 214 217 219 221 225 226 226 228 229 227 224 219 219 221 225 227 229 226 220 215 209 207 206 205 208 207 205 206 210 206 203 205 215 222 226 237 249 253 253 253 266 285 293 299 304 307 308 294 271 253 248 243 235 233 233 239 239 240 237 239
nan nan nan nan nan nan nan nan nan nan 182 190 194 193 191 184 188 193 198 203 205 207 210 210 211 211 212 211 215 220 223 228 231 230 230 229 226 223 218 216 218 222 224 223 221 214 209 210 209 208 207 208 206 205 208 206 200 200 204 211 224 233 233 240 249 254 255 254 263 271 282 290 297 301 296 286 267 260 249 244 246 246 245 243 237 231 230
nan nan nan nan nan nan nan nan nan nan nan 188 185 191 197 189 190 194 199 202 206 207 212 213 212 212 213 213 213 216 218 222 226 226 226 227 226 223 218 216 215 218 220 219 216 211 208 207 207 209 210 210 207 206 206 199 195 197 200 203 216 225 233 236 236 240 242 253 253 252 263 279 291 297 292 288 279 270 264 257 255 255 254 249 240 229 227
nan nan nan nan nan nan nan nan nan nan nan 188 186 190 199 192 191 195 199 202 205 206 211 213 210 210 213 214 216 217 217 218 221 221 222 224 224 224 224 223 222 223 225 223 218 211 208 207 209 211 212 209 206 205 202 197 196 197 199 200 209 218 221 228 233 231 233 239 244 247 259 267 277 284 286 284 279 276 275 270 264 263 256 252 246 239 234
nan nan nan nan nan nan nan nan nan nan nan 189 188 192 197 190 188 193 199 201 203 206 209 214 212 211 211 214 215 217 216 218 220 220 221 223 223 224 224 223 224 226 229 229 224 217 214 213 214 215 216 213 207 202 196 198 198 198 198 201 209 218 220 223 226 227 229 232 236 241 246 254 260 266 272 276 275 271 272 271 269 267 261 259 258 253 247
nan nan nan nan nan nan nan nan nan nan nan nan 188 192 193 185 183 191 196 197 201 205 208 213 214 212 210 213 213 213 213 215 217 218 218 218 220 223 225 224 225 228 228 228 226 220 215 216 218 219 219 219 214 203 200 200 199 199 200 203 210 216 222 226 228 229 228 226 229 235 242 246 250 252 262 269 272 269 270 269 269 268 263 261 261 259 257
nan nan nan nan nan nan nan nan nan nan nan nan nan 192 195 nan 183 189 193 195 197 201 206 211 214 213 211 212 213 213 212 215 217 218 218 218 221 224 223 222 224 227 229 228 226 223 219 214 218 220 220 219 218 213 208 203 201 200 201 204 210 218 224 229 232 234 236 232 230 231 234 238 240 242 245 252 258 262 265 265 262 260 259 260 260 259 259
nan nan nan nan nan nan nan nan nan nan nan nan nan 188 192 188 184 191 194 195 197 198 203 207 212 212 212 213 213 214 213 213 216 220 220 221 224 225 225 221 222 225 228 229 226 223 220 216 217 220 221 219 215 215 214 209 206 205 205 207 208 217 226 233 239 241 243 247 244 239 235 235 238 238 238 242 248 254 260 262 261 259 260 260 261 261 259
nan nan nan nan nan nan nan nan nan nan nan nan nan nan 186 187 189 191 194 198 198 198 201 204 209 211 210 212 213 216 217 215 216 218 220 221 225 228 224 221 221 223 226 228 228 226 223 221 220 221 221 220 217 216 216 215 213 211 210 209 212 222 229 237 242 242 246 246 246 247 244 242 238 235 231 231 233 237 235 240 249 260 261 259 260 258 259
nan nan nan nan nan nan nan nan nan nan nan nan nan nan nan nan 186 192 196 193 198 200 202 203 206 208 207 210 213 216 219 220 219 218 218 219 222 225 226 224 224 223 222 225 228 229 227 226 226 225 222 221 220 218 219 219 218 217 215 216 221 224 229 237 242 245 245 245 247 249 251 251 250 245 241 240 235 236 237 232 234 239 253 255 257 259 255
nan nan nan nan nan nan nan nan nan nan nan nan nan nan nan nan nan 191 198 197 195 199 201 204 nan 207 208 211 nan 217 221 223 221 219 217 219 220 224 228 228 225 226 225 224 226 229 230 231 230 228 227 224 221 220 221 221 221 221 223 224 226 230 232 239 244 248 248 249 249 251 252 253 253 254 250 241 236 236 241 245 244 243 248 252 251 252 260
nan nan nan nan nan nan nan nan nan nan nan nan nan nan nan nan nan nan nan 199 198 198 201 202 206 209 nan nan nan 219 221 225 223 219 216 216 217 223 231 233 230 229 228 227 227 228 231 233 233 232 230 228 226 222 223 222 223 224 228 233 232 235 236 240 244 248 251 254 254 253 251 252 254 256 255 254 244 238 238 243 247 249 250 251 254 255 259
nan nan nan nan nan nan nan nan nan nan nan nan nan nan nan nan nan nan nan nan nan nan nan nan nan nan nan nan nan nan 221 222 223 221 217 216 215 225 236 238 235 234 231 230 230 230 230 232 234 234 233 231 230 228 227 228 227 228 231 236 238 241 242 244 247 252 255 256 256 256 257 257 255 257 258 258 258 254 245 245 248 248 248 251 255 259 260
nan nan nan nan nan nan nan nan nan nan nan nan nan nan nan nan nan nan nan nan nan nan nan nan nan nan nan nan nan nan 219 219 220 222 223 222 224 229 237 244 244 242 236 231 230 229 229 229 231 232 234 233 233 233 233 234 235 236 237 240 242 244 247 250 253 254 254 256 256 256 256 257 256 255 254 258 262 263 261 258 252 249 249 250 254 257 257
nan nan nan nan nan nan nan nan nan nan nan nan nan nan nan nan nan nan nan nan nan nan nan nan nan nan nan nan 216 219 219 220 223 225 228 230 232 235 239 246 247 245 239 233 231 229 230 231 231 232 233 232 233 235 238 240 242 243 244 244 242 243 244 247 252 255 256 256 258 258 258 258 257 256 256 257 258 259 261 262 261 260 260 255 251 257 263
nan nan nan nan nan nan nan nan nan nan nan nan nan nan nan nan nan nan nan nan nan nan nan nan nan nan nan nan nan nan 221 224 226 228 231 233 236 240 243 246 249 246 241 237 235 232 230 230 230 231 232 232 233 237 241 246 247 247 246 248 248 246 245 246 248 252 255 255 257 259 259 258 258 259 259 259 258 259 260 260 262 262 261 259 261 261 263
nan nan nan nan nan nan nan nan nan nan nan nan nan nan nan nan nan nan nan nan nan nan nan nan nan nan nan nan nan 224 226 228 230 232 234 237 240 242 245 247 248 246 240 237 236 235 233 231 229 230 229 230 233 236 239 244 248 248 248 248 249 248 247 247 248 250 251 253 254 256 258 260 261 261 260 260 261 261 260 260 262 262 262 263 263 262 262
nan nan nan nan nan nan nan nan nan nan nan nan nan nan nan nan nan nan nan nan nan nan nan nan nan nan nan nan 228 230 233 236 237 238 240 240 241 243 244 247 247 242 237 234 235 236 236 232 230 229 228 228 231 236 239 241 245 248 249 248 247 247 248 248 251 251 251 253 255 257 257 257 258 261 262 263 263 263 264 264 263 263 264 263 263 264 265
nan nan nan nan nan nan nan nan nan nan nan nan nan nan nan nan nan nan nan nan nan nan nan nan nan nan nan 230 233 235 238 239 241 242 242 242 242 242 242 243 244 241 237 233 231 232 237 236 231 230 228 229 232 236 239 241 243 246 248 249 249 246 245 247 248 251 253 255 256 257 257 259 260 263 264 265 265 265 265 265 265 265 265 265 266 267 268
nan nan nan nan nan nan nan nan nan nan nan nan nan nan nan nan nan nan nan nan nan nan nan nan nan nan nan 231 234 236 236 237 239 240 239 239 238 238 238 239 240 240 237 233 233 233 233 236 233 229 228 230 234 238 241 242 244 246 248 250 251 251 249 248 250 250 252 252 253 254 255 257 257 259 262 264 266 267 267 266 266 266 266 267 267 267 266
nan nan nan nan nan nan nan nan nan nan nan nan nan nan nan nan nan nan nan nan nan nan nan nan nan nan nan 226 228 228 229 231 232 233 234 233 232 232 233 234 236 237 235 232 229 230 231 233 233 231 232 232 236 241 243 244 244 246 247 250 252 251 251 250 251 252 251 251 252 253 255 255 256 256 257 258 260 261 261 261 263 263 264 263 263 nan nan
nan nan nan nan nan nan nan nan nan nan nan nan nan nan nan nan nan nan nan nan nan nan nan nan nan nan 220 221 221 221 222 224 nan nan nan 233 231 230 231 233 235 236 235 232 228 227 227 230 232 234 236 237 240 242 245 247 247 246 246 248 250 251 251 251 251 252 253 252 252 252 253 254 254 255 255 257 258 258 260 261 262 262 262 261 nan nan nan
nan nan nan nan nan nan nan nan nan nan nan nan nan nan nan nan nan nan nan nan nan nan nan nan nan nan 221 221 223 224 226 nan nan nan nan 237 237 235 236 237 237 237 236 234 230 227 225 230 236 238 240 242 244 245 247 251 254 253 252 251 251 252 252 252 252 253 254 254 254 254 254 254 254 255 255 256 256 257 258 258 258 259 nan nan nan nan nan
nan nan nan nan nan nan nan nan nan nan nan nan nan nan nan nan nan nan nan nan nan nan nan nan nan 223 nan nan nan 231 nan nan nan 236 237 238 240 240 240 239 239 239 240 239 236 234 234 238 241 243 246 247 249 249 251 254 256 257 258 258 257 256 255 254 254 254 254 255 255 255 255 255 255 255 255 256 256 257 258 258 nan nan nan nan nan nan nan
nan nan nan nan nan nan nan nan nan nan nan nan nan nan nan nan nan nan nan nan nan nan nan nan nan nan nan nan nan nan nan nan nan nan 240 241 243 244 244 242 240 240 241 243 241 241 242 244 245 248 250 251 251 252 253 255 257 256 258 258 258 258 257 256 255 254 254 253 254 255 255 255 255 255 254 255 nan nan nan nan nan nan nan nan nan nan nan
nan nan nan nan nan nan nan nan nan nan nan nan nan nan nan nan nan nan nan nan nan nan nan nan nan nan nan nan nan nan nan nan nan nan 244 245 247 248 246 245 244 244 244 246 246 247 247 245 245 251 254 253 252 253 253 253 257 258 258 nan 256 nan nan 255 254 253 253 252 252 252 nan nan nan nan nan nan nan nan nan nan nan nan nan nan nan nan nan
nan nan nan nan nan nan nan nan nan nan nan nan nan nan nan nan nan nan nan nan nan nan nan nan nan nan nan nan nan nan nan nan nan nan nan 247 248 249 248 248 247 247 249 249 nan 249 249 248 249 251 252 252 252 251 251 250 253 nan 256 256 nan nan nan nan nan nan nan nan nan nan nan nan nan nan nan nan nan nan nan nan nan nan nan nan nan nan nan
nan nan nan nan nan nan nan nan nan nan nan nan nan nan nan nan nan nan nan nan nan nan nan nan nan nan nan nan nan nan nan nan nan nan nan nan 247 248 248 245 244 nan nan nan nan nan 250 247 248 nan 249 nan nan 250 nan 249 250 251 250 249 250 250 250 251 252 251 250 250 251 251 252 nan nan nan nan nan nan nan nan nan nan nan nan nan nan nan nan
nan nan nan nan nan nan nan nan nan nan nan nan nan nan nan nan nan nan nan nan nan nan nan nan nan nan nan nan nan nan nan nan nan nan nan nan nan nan nan nan nan nan nan nan nan nan nan nan nan nan nan nan nan nan nan nan nan nan nan nan nan nan nan nan nan nan nan nan nan nan nan 251 nan nan nan nan nan nan nan nan nan nan nan nan nan nan nan
nan nan nan nan nan nan nan nan nan nan nan nan nan nan nan nan nan nan nan nan nan nan nan nan nan nan nan nan nan nan nan nan nan nan nan nan nan nan nan nan nan nan nan nan nan nan nan nan nan nan nan nan nan nan nan nan nan nan nan nan nan nan nan nan nan nan nan nan nan nan nan nan nan nan nan nan nan nan nan nan nan nan nan nan nan nan nan
nan nan nan nan nan nan nan nan nan nan nan nan nan nan nan nan nan nan nan nan nan nan nan nan nan nan nan nan nan nan nan nan nan nan nan nan nan nan nan nan nan nan nan nan nan nan nan nan nan nan nan nan nan nan nan nan nan nan nan nan nan nan nan nan nan nan nan nan nan nan nan nan nan nan nan nan nan nan nan nan nan nan nan nan nan nan nan
nan nan nan nan nan nan nan nan nan nan nan nan nan nan nan nan nan nan nan nan nan nan nan nan nan nan nan nan nan nan nan nan nan nan nan nan nan nan nan nan nan nan nan nan nan nan nan nan nan nan nan nan nan nan nan nan nan nan nan nan nan nan nan nan nan nan nan nan nan nan nan nan nan nan nan nan nan nan nan nan nan nan nan nan nan nan nan
nan nan nan nan nan nan nan nan nan nan nan nan nan nan nan nan nan nan nan nan nan nan nan nan nan nan nan nan nan nan nan nan nan nan nan nan nan nan nan nan nan nan nan nan nan nan nan nan nan nan nan nan nan nan nan nan nan nan nan nan nan nan nan nan nan nan nan nan nan nan nan nan nan nan nan nan nan nan nan nan nan nan nan nan nan nan nan
nan nan nan nan nan nan nan nan nan nan nan nan nan nan nan nan nan nan nan nan nan nan nan nan nan nan nan nan nan nan nan nan nan nan nan nan nan nan nan nan nan nan nan nan nan nan nan nan nan nan nan nan nan nan nan nan nan nan nan nan nan nan nan nan nan nan nan nan nan nan nan nan nan nan nan nan nan nan nan nan nan nan nan nan nan nan nan
nan nan nan nan nan nan nan nan nan nan nan nan nan nan nan nan nan nan nan nan nan nan nan nan nan nan nan nan nan nan nan nan nan nan nan nan nan nan nan nan nan nan nan nan nan nan nan nan nan nan nan nan nan nan nan nan nan nan nan nan nan nan nan nan nan nan nan nan nan nan nan nan nan nan nan nan nan nan nan nan nan nan nan nan nan nan nan
nan nan nan nan nan nan nan nan nan nan nan nan nan nan nan nan nan nan nan nan nan nan nan nan nan nan nan nan nan nan nan nan nan nan nan nan nan nan nan nan nan nan nan nan nan nan nan nan nan nan nan nan nan nan nan nan nan nan nan nan nan nan nan nan nan nan nan nan nan nan nan nan nan nan nan nan nan nan nan nan nan nan nan nan nan nan nan
nan nan nan nan nan nan nan nan nan nan nan nan nan nan nan nan nan nan nan nan nan nan nan nan nan nan nan nan nan nan nan nan nan nan nan nan nan nan nan nan nan nan nan nan nan nan nan nan nan nan nan nan nan nan nan nan nan nan nan nan nan nan nan nan nan nan nan nan nan nan nan nan nan nan nan nan nan nan nan nan nan nan nan nan nan nan nan
nan nan nan nan nan nan nan nan nan nan nan nan nan nan nan nan nan nan nan nan nan nan nan nan nan nan nan nan nan nan nan nan nan nan nan nan nan nan nan nan nan nan nan nan nan nan nan nan nan nan nan nan nan nan nan nan nan nan nan nan nan nan nan nan nan nan nan nan nan nan nan nan nan nan nan nan nan nan nan nan nan nan nan nan nan nan nan
nan nan nan nan nan nan nan nan nan nan nan nan nan nan nan nan nan nan nan nan nan nan nan nan nan nan nan nan nan nan nan nan nan nan nan nan nan nan nan nan nan nan nan nan nan nan nan nan nan nan nan nan nan nan nan nan nan nan nan nan nan nan nan nan nan nan nan nan nan nan nan nan nan nan nan nan nan nan nan nan nan nan nan nan nan nan nan
nan nan nan nan nan nan nan nan nan nan nan 253 nan nan nan nan nan nan nan nan nan nan nan nan nan nan nan nan nan nan nan nan nan nan nan nan nan nan nan nan nan nan nan nan nan nan nan nan nan nan nan nan nan nan nan nan nan nan nan nan nan nan nan nan nan nan nan nan nan nan nan nan nan nan nan nan nan nan nan nan nan nan nan nan nan nan nan